Location: San Antonio
(29.4240°N, 98.4930°W)
Time: 16:15:56
(UTC-05:00)

ISS - All Passes

Search period start: 01 May 2016 00:00
Search period end: 11 May 2016 00:00
Orbit: 402 x 405 km, 51.6° (Epoch: 01 May)

Date Brightness Start Highest point End Pass type
(mag) Time Alt. Az. Time Alt. Az. Time Alt. Az.
01 May - 07:57:37 10° SW 08:00:52 85° SE 08:04:07 10° NE daylight
01 May - 16:06:28 10° NW 16:09:40 58° NE 16:12:53 10° SE daylight
02 May - 07:05:30 10° SSW 07:08:28 33° SE 07:11:27 10° ENE daylight
02 May - 08:42:54 10° WNW 08:44:59 16° NW 08:47:05 10° N daylight
02 May - 15:14:20 10° NNW 15:17:08 26° NE 15:19:57 10° E daylight
02 May - 16:51:11 10° W 16:53:26 17° SW 16:55:40 10° S daylight
03 May - 06:14:13 10° SSE 06:16:09 15° SE 06:18:04 10° E visible
03 May - 07:49:27 10° WSW 07:52:22 30° NW 07:55:18 10° NNE daylight
03 May - 14:22:41 10° N 14:24:30 14° NE 14:26:18 10° ENE daylight
03 May - 15:58:00 10° WNW 16:01:05 40° SW 16:04:09 10° SSE daylight
04 May - 06:56:36 10° SW 06:59:50 71° NW 07:03:05 10° NE daylight
04 May - 15:05:23 10° NW 15:08:39 79° NE 15:11:54 10° SE daylight
05 May - 06:04:16 10° SSW 06:07:24 44° SE 06:10:31 10° ENE visible
05 May - 07:42:23 10° WNW 07:44:01 13° NW 07:45:38 10° N daylight
05 May - 14:13:07 10° NNW 14:16:07 33° NE 14:19:06 10° ESE daylight
05 May - 15:50:38 10° W 15:52:18 13° SW 15:54:00 10° SSW daylight
06 May - 05:12:36 10° S 05:15:01 19° SE 05:17:24 10° E visible
06 May - 06:48:36 10° W 06:51:19 24° NW 06:54:03 10° NNE daylight
06 May - 13:21:14 10° N 13:23:28 17° NE 13:25:42 10° E daylight
06 May - 14:57:03 10° WNW 14:59:57 30° SW 15:02:51 10° SSE daylight
07 May - 05:55:32 10° WSW 05:58:44 52° NW 06:01:55 10° NNE visible
07 May - 14:04:16 10° NW 14:07:31 77° SW 14:10:46 10° SE daylight
08 May - 05:03:01 10° SSW 05:06:13 61° SE 05:09:26 10° NE visible
08 May - 06:42:04 10° NW 06:42:56 11° NW 06:43:49 10° NNW daylight
08 May - 13:11:51 10° NNW 13:14:59 42° NE 13:18:06 10° ESE daylight
08 May - 14:50:37 10° WSW 14:51:05 10° SW 14:51:33 10° SW daylight
09 May - 04:11:04 10° S 04:13:46 25° SE 04:16:31 10° ENE visible
09 May - 05:47:43 10° W 05:50:11 20° NW 05:52:40 10° N visible
09 May - 12:19:48 10° NNW 12:22:20 21° NE 12:24:53 10° E daylight
09 May - 13:56:05 10° WNW 13:58:43 23° SW 14:01:22 10° S daylight
10 May - 03:20:25 10° SE 03:21:25 11° SE 03:22:24 10° ESE visible
10 May - 04:54:27 10° WSW 04:57:32 39° NW 05:00:38 10° NNE visible
10 May - 11:28:28 10° NNE 11:29:35 11° NE 11:30:43 10° NE daylight
10 May - 13:03:04 10° NW 13:06:17 56° SW 13:09:28 10° SSE daylight
